Weather in Cherdakli

Russia / Ulyanovsk Oblast     54°21′38″N   48°50′56″E
temp.,
°C
wind,
m/s
gust,
m/s
humid.,
%
clouds,
%
prec.,
mm/h
press.,
hPa
HPBL,
m
26 january, tue
tue2601:00−3sse61194100 0.1 1027414
04:00−2sse61193100 0.1 1026504
07:00−2sse61092100 0.0 1025415
10:00−4sse6109495 0.0 1025371
13:00−3sse6119294 0.0 1025507
16:00−2sse6119197 0.0 1024576
19:00−2s71193100 0.0 1025619
22:00−2s61191100 0.1 1025518
27 january, wed
wed2701:00−2sse71193100 0.0 1024409
04:00−3sse71292100 0.0 1024533
07:00−5sse71392100 0.0 1023365
10:00−4sse81492100 0.0 1023467
13:00−2s81390100 0.0 1023656
16:00−3sse71389100 0.0 1021538
19:00−4sse61190100 0.0 1022386
22:00−4s71289100 0.0 1021446
28 january, thu
thu2801:00−3s61188100 0.0 1021440
04:00−3s61089100 0.0 1021374
07:00−5sse61091100 0.0 1020322
10:00−6sse51092100 0.0 1020298
13:00−6sse5992100 0.0 1020328
16:00−6sse5993100 0.0 1019307
19:00−7sse51093100 0.0 1019299
22:00−9sse51094100 0.0 1018244
29 january, fri
fri2901:00−9se5994100 0.0 1017222
04:00−11se4696100 0.0 1016125
07:00−8se3696100 0.0 1014171
10:00−8ese4895100 0.1 1011214
13:00−6ese4794100 0.0 1009421
16:00−5ese3696100 0.3 1006361
19:00−4se3797100 2.4 1004298
22:00−4se2497100 3.9 1002135
30 january, sat
sat3001:00−5wsw3497100 0.8 1001123
04:00−5sw3796100 1.4 1002273
07:00−4ssw4992100 0.7 1003398
10:00−4ssw4992100 0.7 1006247
13:00−2sse359367 0.0 1007184
16:00−2sse589781 0.4 1007316
19:00−3s4994100 0.8 1007306
22:00−4ssw339497 1.0 100848